Torna al catalogo

STARLINK-3849

AttivoComunicazioniVLEO
NORAD 52343·PAYLOAD·🇺🇸 United States

Lanciato Apr 29, 2022 da Cape Canaveral Space Force Station

Loading…

Prossimi Passaggi (prossime 24 ore)

TLE

AggiornatoSource: CelesTrak SupGP

Epoca: Sep 15, 2026, 01:12 UTC

1 52343C 22045N   26258.05048611  .00701330  00000+0  22331-1 0  2581
2 52343  53.1607  77.0293 0001300  83.6781 316.1001 15.31668621    18

Traccia STARLINK-3849 in tempo reale con AllMySat

Download on the App Store